Regional Weather Roundup
Issued by NWS Charleston, WV

Home | Current Version | Previous Version | Graphics & Text | Print | Product List | Glossary On
Versions: 1 2 3 4 5 6 7 8 9 10 11 12 13 14 15 16 17 18 19 20 21 22 23 24 25 26 27 28 29 30 31 32 33 34 35 36 37 38 39 40 41 42 43 44 45 46 47 48 49 50
471
ASUS41 KRLX 240710
RWRRLX
West Virginia Regional Weather Roundup
National Weather Service Charleston WV
200 AM EST FRI FEB 24 2017

Note: "fair" indicates few or no clouds below 12,000 feet with no
significant weather and/or obstructions to visibility.

WVZ003-240800-
Northern Panhandle of West Virginia

CITY           SKY/WX    TMP DP  RH WIND       PRES   REMARKS
WHEELING       CLOUDY    59  51  75 S8        29.81S
$$

WVZ009-240800-
Northwest West Virginia

CITY           SKY/WX    TMP DP  RH WIND       PRES   REMARKS
PARKERSBURG    PTCLDY    60  52  74 S6        29.83S
$$

WVZ006-240800-
Western West Virginia

CITY           SKY/WX    TMP DP  RH WIND       PRES   REMARKS
HUNTINGTON     PTCLDY    52  51  97 CALM      29.79S
$$

WVZ015-240800-
West Central West Virginia

CITY           SKY/WX    TMP DP  RH WIND       PRES   REMARKS
CHARLESTON     PTCLDY    51  50  96 CALM      29.81F
$$

WVZ022-031-240800-
North Central West Virginia

CITY           SKY/WX    TMP DP  RH WIND       PRES   REMARKS
CLARKSBURG     PTCLDY    51  48  89 CALM      29.84S
MORGANTOWN     PTCLDY    61  50  67 CALM      29.84S
$$

WVZ025-035-042-045-240800-
Southern West Virginia

CITY           SKY/WX    TMP DP  RH WIND       PRES   REMARKS
BECKLEY        PTCLDY    53  48  83 SE3       29.89S
LOGAN            N/A     61  52  72 VRB6      29.83F
BLUEFIELD      CLOUDY    56  46  69 S10G17    29.91F
LEWISBURG      PTCLDY    43  43  97 CALM      29.91F
$$

WVZ047-240800-
Northern Mountains of West Virginia

CITY           SKY/WX    TMP DP  RH WIND       PRES   REMARKS
ELKINS         PTCLDY    43  40  89 CALM      29.89S
$$

WVZ052-240800-
Eastern Panhandle of West Virginia

CITY           SKY/WX    TMP DP  RH WIND       PRES   REMARKS
MARTINSBURG    PTCLDY    59  50  72 S6        29.85S
PETERSBURG     MOCLDY    49  47  93 CALM      29.87S
$$




USA.gov is the U.S. government's official web portal to all federal, state and local government web resources and services.